Location: Montclair
(37.8322°N, 122.2092°W)
Time: 07:09:56
(UTC+00:00)

Cosmos 1606 Rocket - Pass Details

Date: 06 December 2024
Orbit: 599 x 625 km, 82.5° (Epoch: 18 January)

Event Time Altitude Azimuth Distance (km) Brightness Sun altitude
Rises 01:08:48 0° 181° (S) 2,835 7.3 -4.2°
Reaches altitude 10° 01:11:00 10° 180° (S) 1,935 6.5 -4.6°
Maximum altitude 01:15:15 74° 96° (E) 626 3.5 -5.4°
Drops below altitude 10° 01:19:33 10° 11° (N) 1,946 5.8 -6.2°
Sets 01:21:46 0° 10° (N) 2,853 6.6 -6.6°
